www.pogodaiklimat.ru

Погода и климат >> Архив погоды >> Россия >> Ямало-Ненецкий АО >> Ныда


ПОГОДА в Ныде

  • Прогноз погоды в Ныде
  • Монитор погоды в Ныде

АРХИВ ПОГОДЫ в Ныде

Время (UTC), дата Ветер
(напр.,м/с)
 
Видим.   Явления Облачность Т
(С)
Тd
(С)
f
(%)
Тe
(С)
Тes
(С)
Комфортность P
(гПа)
Po
(гПа)
Тmin
(С)
Tmax
(С)
R
(мм)
R24
(мм)
S
(см)
09 14.04 З 5 10 км 6/0
[Ci fib]
-14.3 -17.5 77 -23 -20 1022.3 1021.3
12 14.04 ЮЗ 2 20 км 4/0
[Ci fib]
-12.4 -15.8 76 -17 -15 1021.8 1020.8
15 14.04 Ю 2 10 км 4/0
[Ac trans Ci fib]
-18.4 -21.4 77 -24 -24 1018.6 1017.6 -11.7
18 14.04 Ю 6 10 км 6/0
[Ac trans]
-15.0 -17.5 81 -25 -25 1016.5 1015.5
21 14.04 Ю 6 10 км 8/0
[Ac trans]
-15.5 -17.9 82 -25 -25 1013.0 1012.0
00 15.04 Ю 7
{10}
10 км 9/0
[Ac trans]
-14.6 -17.4 79 -25 -25 1009.5 1008.5
03 15.04 ЮВ 8-10
{10}
10 км позёмок 8/4 300 м
[Sc Ac trans]
-10.7 -14.0 77 -21 -20 1005.6 1004.7 -20.2 125
06 15.04 ЮВ 8
{11}
4000 м слаб. снег {метель} 10/10 300 м
[Sc]
-8.0 -10.8 80 -17 -17 1003.5 1002.6
09 15.04 ЮВ 8-10
{11}
4000 м слаб. снег {метель} 10/0
[Ac As]
-6.0 -8.7 81 -15 -15 1001.0 1000.1
12 15.04 ЮВ 6
{11}
2000 м снег {метель} 10/0 300 м
[As op]
-5.6 -7.2 88 -14 -13 999.8 998.9
15 15.04 В 5 4000 м слаб. снег 10/0 300 м
[As op]
-6.3 -7.8 89 -14 -14 998.0 997.1 -5.5 2
18 15.04 В 4 4000 м слаб. снег 10/0
[As trans]
-8.3 -9.9 88 -15 -15 996.1 995.2
21 15.04 В 5 4000 м слаб. снег 10/0
[As op]
-8.1 -9.9 87 -16 -16 995.9 995.0
00 16.04 СВ 9-12
{12}
4000 м слаб. снег {метель} 10/0
[As op]
-9.3 -11.2 86 -19 -19 997.6 996.7
03 16.04 СВ 12-17
{17}
1000 м метель {снег} 9/0
[Ac trans]
-11.8 -14.0 84 -24 -24 1000.3 999.4 -11.8 2 132
06 16.04 СВ 12-16
{18}
1000 м сильная метель 8/0
[Ac trans Ci sp]
-13.2 -15.6 82 -25 -25 1004.8 1003.9 -13.2
09 16.04 СВ 14-19
{19}
500 м сильная метель 9/0
[Ac trans Ci sp]
-13.3 -15.7 82 -26 -26 1009.5 1008.5
12 16.04 С 14-18
{19}
500 м сильная метель 8/0
[Ci sp]
-16.8 -19.4 80 -31 -31 опасность
обморожения
1013.8 1012.8
15 16.04 С 12-15
{18}
1000 м сильная метель 6/0
[Ci sp]
-19.8 -22.6 78 -34 -34 опасность
обморожения
1017.1 1016.1 -11.8
18 16.04 С 9-11
{18}
10 км позёмок 4/0
[Ac trans]
-22.0 -25.1 76 -36 -36 опасность
обморожения
1018.4 1017.4
21 16.04 С 7
{11}
10 км {метель} 4/0
[Ac trans]
-23.7 -27.0 74 -36 -36 опасность
обморожения
1020.4 1019.4
00 17.04 С 9-10
{11}
10 км позёмок ясно -25.0 -28.5 73 -40 -40 опасность
обморожения
1020.2 1019.2
03 17.04 С 9-10
{12}
10 км позёмок ясно -24.4 -27.9 73 -39 -39 опасность
обморожения
1020.0 1019.0 -25.4 124
06 17.04 С 7-10
{12}
4000 м мгла ясно -21.1 -24.2 76 -33 -31 опасность
обморожения
1021.5 1020.5
09 17.04 С 7
{10}
10 км {метель} ясно -18.5 -21.5 77 -30 -28 1021.7 1020.7
12 17.04 СЗ 5
{10}
20 км {метель} 3/0
[Ci fib]
-17.7 -20.6 78 -27 -26 1021.5 1020.5
15 17.04 З 3 10 км 3/0
[Ac trans Ci fib]
-21.4 -24.3 77 -29 -29 1019.1 1018.1 -17.4
18 17.04 З 2 10 км 3/0
[Ac trans]
-22.7 -25.7 76 -29 -29 1017.3 1016.3
21 17.04 ЮВ 2 10 км ясно -28.1 -31.9 70 -35 -35 опасность
обморожения
1014.9 1013.9
00 18.04 ЮВ 2 10 км 4/0
[Ac trans Ci fib]
-28.5 -32.3 70 -36 -36 опасность
обморожения
1013.9 1012.9
03 18.04 ЮВ 2 10 км 3/0
[Ci sp]
-22.0 -25.1 76 -28 -25 1013.2 1012.2 -29.3 124
06 18.04 ЮВ 2 20 км 3/0
[Ci sp]
-15.6 -18.4 79 -21 -14 1013.3 1012.3
09 18.04 ЮВ 2 20 км 4/0
[Ci sp]
-11.9 -15.4 75 -16 -11 1014.0 1013.1
12 18.04 ЮВ 4 20 км 6/0
[Ac trans Ci fib]
-12.8 -15.9 78 -20 -19 1013.4 1012.5
15 18.04 ЮВ 5 20 км 9/8 600 м
[Sc Ac trans]
-11.7 -15.0 76 -20 -20 1012.9 1012.0 -10.8
18 18.04 Ю 5 4000 м слаб. снег 10/0
[As trans]
-11.2 -14.2 78 -19 -19 1011.1 1010.2
21 18.04 Ю 7 4000 м слаб. снег 10/0
[As trans]
-9.3 -11.4 85 -18 -18 1008.4 1007.5
00 19.04 Ю 5 20 км {снег} 9/6 300 м
[Sc Ac trans]
-8.9 -11.0 85 -17 -17 1006.5 1005.6
03 19.04 ЮЗ 4 4000 м слаб. ливневой снег 9/9 300 м
[Cb cap]
-5.9 -8.0 85 -12 -12 1005.6 1004.7 -12.9 0.2 124
06 19.04 СЗ 7
{10}
10 км позёмок {ливн. осадки} 9/9 300 м
[Cb cap]
-4.5 -6.8 84 -13 -12 1005.5 1004.6
09 19.04 СЗ 9-10
{11}
4000 м слаб. ливневой снег {метель} 10/10 300 м
[Cb cap]
-5.0 -7.4 83 -14 -14 1007.1 1006.2
12 19.04 СЗ 10-13
{13}
4000 м слаб. снег 10/10 300 м
[Sc]
-7.8 -10.0 84 -18 -18 1008.6 1007.7
15 19.04 СЗ 10-12
{14}
4000 м метель {снег} 10/10 300 м
[Sc]
-9.9 -12.0 85 -21 -21 1010.2 1009.3 -3.7 0.3
18 19.04 СЗ 11-13
{14}
4000 м метель {снег} 10/0
[As op]
-11.3 -13.5 84 -23 -23 1010.8 1009.9
21 19.04 СЗ 8-10
{13}
10 км {метель} 4/0
[Ac trans]
-15.7 -18.3 80 -27 -27 1013.2 1012.2
00 20.04 СЗ 9-10
{13}
4000 м слаб. снег {метель} 10/10 300 м
[Sc]
-15.7 -18.3 80 -27 -27 1012.1 1011.1
03 20.04 СЗ 7
{11}
10 км {снег, метель} 8/0
[Ac trans Ci sp]
-17.6 -20.6 77 -29 -28 1012.9 1011.9 -18.0 0.0 125
06 20.04 СЗ 5
{11}
20 км {снег, метель} 8/0
[Ci sp]
-15.5 -18.7 76 -24 -21 1013.8 1012.8
09 20.04 СЗ 5 20 км 6/0
[Ac trans Ci sp]
-13.3 -16.6 76 -22 -19 1015.1 1014.1
12 20.04 СЗ 3 20 км 6/0
[Ci sp]
-13.6 -16.7 77 -20 -18 1016.6 1015.6
15 20.04 Ю 2 10 км 6/0
[Ci sp]
-18.5 -20.8 82 -24 -24 1015.3 1014.3 -12.9
18 20.04 Ю 1 10 км 4/0
[Ci fib]
-20.1 -22.8 79 -23 -23 1014.4 1013.4
21 20.04 Ю 4 4000 м слаб. снег 10/0
[As trans]
-16.1 -18.5 82 -24 -24 1011.7 1010.7
00 21.04 Ю 7 4000 м слаб. снег 10/0
[As op]
-11.7 -14.1 82 -21 -21 1008.9 1008.0
03 21.04 Ю 5 10 км {снег} 8/0
[Ac trans Ci fib]
-8.5 -11.2 81 -16 -15 1007.8 1006.9 -20.9 0.5 121
06 21.04 Ю 6 10 км {снег} 8/4 300 м
[Sc Ac trans]
-3.5 -6.7 78 -11 -10 1007.5 1006.6

 

Местоположение метеостанции Ныда (Ямало-Ненецкий АО, Россия): широта 66.63 долгота 72.93 высота над уровнем моря 7 м.

В архиве по умолчанию представлена погода в Ныде за последнюю неделю. Архивные данные за месяц целиком и за предыдущие месяцы, начиная с января 2011 года, Вы можете получить, выбрав интересующий диапазон дат из раскрывающегося списка и нажав кнопку "Ввод!".


*Определитесь, кто Вы:
робот инопланетянин человек

Внимание! Время в таблицах - всемирное. Для получения местного времени необходимо прибавить поправку, которая равна 5 ч.

Смотрите также архив погоды в соседних городах и на ближайших метеорологических станциях:

Погода в Пангодах (Ямало-Ненецкий АО, Россия) (113 км)
Погода в Новом Порте (Ямало-Ненецкий АО, Россия) (117 км)
Погода в Надыме (Ямало-Ненецкий АО, Россия) (130 км)
Погода в Новом Уренгое (Ямало-Ненецкий АО, Россия) (181 км)
Погода в Полуе (Ямало-Ненецкий АО, Россия) (201 км)
Погода в Белоярске (Ямало-Ненецкий АО, Россия) (212 км)
Погода в Лонг-Югане (Ямало-Ненецкий АО, Россия) (226 км)
Погода в Уренгое (Ямало-Ненецкий АО, Россия) (256 км)
Погода в Тазовском (Ямало-Ненецкий АО, Россия) (268 км)
Погода в Салехарде (Ямало-Ненецкий АО, Россия) (277 км)

Пояснения к столбцам:

Ветер - указаны скорость ветра в м/с - средняя за 10 мин, порывы в срок и между сроками (в фигурных скобках) и направление, откуда дует ветер: С - северный, СВ - северо-восточный, В - восточный, ЮВ - юго-восточный, Ю - южный, ЮЗ - юго-западный, З - западный, СЗ - северо-западный.
Видимость - горизонтальная дальность видимости в метрах или километрах. При видимости от 1 до 10 км при отсутствии осадков обычно наблюдается дымка, при ухудшении видимости до 1 км и менее - туман. В сухую погоду видимость может ухудшаться дымом, пылью или мглою.
Явления - указаны атмосферные явления, наблюдавшиеся в срок или в последний час перед сроком; фигурными скобками обозначены явления, наблюдавшиеся между сроками (за 1-3 часа до срока); квадратными скобками обозначены град или гололедные отложения с указанием их диаметра в мм.
Облачность - указаны через наклонную черту общая и нижняя облачность в баллах и высота нижней границы облаков в метрах; квадратными скобками обозначены формы облаков: Ci - перистые, Cs - перисто-слоистые, Cc - перисто-кучевые, Ac - высококучевые, As - высокослоистые, Sc - слоисто-кучевые, Ns - слоисто-дождевые, Cu - кучевые, Cb - кучево-дождевые. Подробнее классификацию облаков см. в Атласе облаков (PDF).
T - Температура воздуха - температура, измеренная на высоте 2 м над землей.
Td - Температура точки росы - температура, при понижении до которой содержащийся в воздухе водяной пар достигнет насыщения.
f - Относительная влажность воздуха - влажноcть воздуха, измеренная на высоте 2 м над землей.
Te - Эффективная температура - температура, которую ощущает одетый по сезону человек в тени. Характеристика душности погоды. При расчете учитывается влияние влажности воздуха и скорости ветра на теплоощущения человека.
Tes - Эффективная температура на солнце - температура, которую ощущает человек, с поправкой на солнечный нагрев. Характеристика знойности погоды. Зависит от высоты солнца над горизонтом, облачности и скорости ветра. Ночью, в пасмурную погоду, а также при ветре 12 м/с и более поправка равна нулю.
P - Атмосферное давление - приведенное к уровню моря атмосферное давление.
Po - Атмосферное давление - измеренное на уровне метеостанции атмосферное давление.
Tmin - Минимальная температура - минимум температуры воздуха на высоте 2 м над землей.
Tmax - Максимальная температура - максимум температуры воздуха на высоте 2 м над землей.
R - Количество осадков - Количество выпавших осадков за период времени, мм. При наведении курсора мыши на число - период времени, за который выпало указанное количество осадков.
R24 - Количество осадков - Количество выпавших осадков за 24 часа, мм.
S - Снежный покров - Высота снежного покрова, см. При наведении курсора мыши на число - состояние снежного покрова и степень покрытия местности в баллах.